Wind_Speed
76 76 77 78 79 80 80 81 82 82 82 83 83 83 84 85 86 87 88 89 91 93 94 95 95 95 95 95 97 98 100 101 102 103 103 104 105 106 107 107 107 108 108 108 108 109 110 111 111 112 112 112 113 114 114 115 116 116 117 118 119 120 122 123 124 125 126 126 126 127 127 127 126 126 125 125 125 125 124 122 121 120 119 119 120
77 78 79 79 80 81 82 82 83 84 84 84 84 85 85 86 86 87 88 90 91 93 94 95 96 96 96 96 97 98 99 100 101 102 103 103 104 105 106 106 107 107 108 108 108 109 109 110 111 111 111 112 113 114 114 115 116 117 118 119 120 122 123 125 126 126 126 127 127 127 127 126 125 125 125 124 124 123 122 121 120 119 119 119 120
77 78 79 80 80 81 82 83 84 84 85 85 86 86 87 87 87 88 89 90 91 92 93 94 95 95 95 95 96 97 98 99 100 101 102 103 103 104 106 106 107 107 107 108 109 109 110 111 111 112 113 114 114 115 116 117 118 119 120 121 123 124 125 126 127 127 127 127 127 127 126 125 124 124 123 123 122 121 120 120 119 118 118 119 120
77 78 78 79 80 80 81 81 82 83 84 85 85 86 87 88 88 88 89 90 91 91 92 94 94 95 95 96 96 97 98 99 100 101 102 103 103 104 105 106 107 107 107 108 109 110 111 112 113 113 114 115 116 117 118 119 120 121 123 124 125 126 126 127 127 127 128 127 127 126 125 124 123 122 122 121 120 120 119 119 118 118 118 119 119
79 79 80 81 81 81 81 82 83 83 84 85 86 87 88 89 90 90 91 91 92 93 94 95 96 96 96 97 98 99 99 100 101 102 103 104 104 105 106 108 109 109 108 109 110 111 112 113 114 116 116 117 118 119 120 121 122 123 124 125 126 127 127 127 127 127 127 127 126 124 123 121 121 120 120 119 118 118 118 117 118 118 118 118 119
81 82 83 83 83 84 84 84 85 85 86 87 88 89 90 90 91 92 93 93 94 95 96 97 98 98 98 99 100 100 101 102 103 104 105 106 107 107 108 109 111 111 111 112 112 113 115 116 117 118 119 119 120 121 122 123 123 124 125 126 127 127 127 127 126 126 126 125 123 121 120 119 119 118 118 117 116 116 116 117 118 118 117 117 118
84 85 85 85 86 86 86 87 87 88 89 90 90 91 92 93 94 94 95 96 97 97 98 99 100 100 101 101 102 103 104 105 106 107 108 108 109 109 110 111 112 113 114 115 115 116 117 118 119 120 120 121 122 122 123 124 125 125 126 126 127 126 126 125 125 124 123 121 120 118 117 117 117 116 115 114 114 114 115 116 117 117 117 117 118
87 88 88 88 88 89 89 90 90 91 91 92 93 93 94 95 96 97 97 98 99 99 100 101 102 103 103 104 105 105 106 107 108 109 110 111 111 111 112 113 113 114 116 116 117 118 119 120 121 122 123 123 123 124 125 125 126 126 126 126 125 125 124 123 122 121 119 118 116 115 115 114 114 113 113 113 113 113 114 114 115 116 117 117 118
89 90 90 91 91 91 92 92 92 93 93 94 95 95 96 97 98 98 99 99 100 101 101 102 103 104 105 106 107 107 108 109 110 112 113 113 113 114 114 115 115 116 117 118 119 120 121 122 123 124 124 125 125 125 126 127 127 126 125 124 123 122 121 120 118 117 116 115 113 113 113 112 111 111 111 112 112 113 113 113 114 115 116 117 118
91 91 92 92 93 93 94 94 94 95 95 96 97 97 98 99 99 100 100 101 102 103 103 104 105 106 107 108 109 110 111 111 112 113 114 115 116 116 117 117 118 119 119 120 121 122 123 124 124 125 126 126 126 127 127 127 126 124 123 122 121 119 118 116 115 114 113 112 111 111 110 109 109 109 109 110 111 111 112 112 113 115 116 117 118
93 94 95 95 96 96 96 96 96 96 96 97 98 99 99 100 101 102 102 103 104 105 106 107 108 109 110 111 112 113 114 114 115 116 117 117 118 119 120 120 121 122 122 123 124 124 125 125 126 127 127 127 127 127 126 125 123 122 120 119 117 116 114 112 111 110 110 109 109 108 107 107 107 107 107 108 109 110 110 112 113 115 116 117 119
97 97 98 98 99 99 99 99 98 98 98 99 99 100 101 102 102 103 104 105 106 107 108 109 110 112 113 114 115 116 117 118 119 119 120 120 121 122 122 123 123 124 125 125 126 127 127 127 127 127 127 126 125 124 123 121 120 118 116 115 113 111 109 108 107 107 107 106 105 105 105 105 105 105 106 107 107 108 110 112 114 115 116 118 119
100 100 100 101 101 101 101 101 101 102 101 102 102 103 103 104 105 106 106 107 108 109 111 112 113 114 116 117 118 119 120 121 122 122 123 123 124 125 125 126 126 127 127 128 128 128 128 127 127 126 124 123 121 120 119 117 116 114 112 110 107 105 104 104 104 104 104 103 103 103 104 104 103 104 104 105 107 109 111 113 115 116 118 119 119
102 102 103 103 103 103 103 103 104 104 104 104 105 105 106 107 107 108 109 110 111 113 114 115 116 118 119 120 121 122 123 124 125 126 127 127 128 128 128 129 129 128 128 128 127 127 126 125 123 121 120 118 117 115 114 113 111 108 106 103 102 101 101 101 101 101 101 101 101 102 102 102 102 102 103 105 107 110 112 114 116 118 119 119 119
104 105 105 105 105 105 106 106 106 107 107 107 108 108 109 109 110 111 112 113 114 116 117 118 119 121 122 123 124 125 126 127 127 128 128 128 128 128 128 128 127 126 126 125 124 123 122 120 118 116 115 113 112 110 109 107 104 102 100 99 98 98 99 99 99 99 100 100 100 101 101 101 102 103 104 106 108 110 112 115 117 118 118 119 119
106 107 107 108 108 108 108 109 109 110 110 110 111 112 112 113 114 114 115 116 118 119 120 121 122 122 123 124 124 124 125 125 125 126 126 126 126 126 125 124 123 122 122 120 119 118 116 115 113 111 109 107 106 105 102 100 98 96 96 95 95 96 97 97 98 98 99 99 100 101 102 103 103 104 106 107 109 111 114 115 117 118 118 118 118
108 109 109 109 110 110 111 112 112 113 113 114 114 115 116 117 118 118 119 120 120 121 121 121 121 121 121 120 121 120 121 121 122 122 123 123 123 122 121 120 119 118 117 116 115 113 111 109 107 104 103 101 100 97 95 94 93 93 92 92 93 95 96 96 97 98 98 99 100 102 103 105 105 106 107 108 110 112 114 115 116 117 117 117 116
109 109 110 111 111 112 113 114 114 115 116 116 117 118 120 121 121 121 120 120 119 119 119 118 117 117 116 116 117 117 118 118 119 119 119 119 118 118 117 116 115 114 113 112 110 109 106 104 101 99 97 95 93 91 90 90 91 91 91 91 93 95 96 96 97 98 99 100 102 103 105 106 107 108 109 110 111 113 114 115 116 116 116 115 113
110 111 111 112 113 113 114 115 116 117 118 120 121 121 122 121 120 119 118 117 117 116 115 113 112 112 112 112 112 113 114 114 115 114 113 113 112 111 111 110 109 108 108 106 105 103 100 98 96 94 92 90 89 88 88 88 89 90 91 92 94 95 96 96 98 100 100 102 103 104 107 109 110 110 111 111 112 113 114 114 114 114 113 112 110
111 112 113 114 114 115 116 117 118 120 120 121 121 120 119 118 116 115 114 112 111 109 108 107 107 106 107 107 107 107 107 107 106 105 104 102 102 102 101 101 101 101 100 99 98 96 94 93 91 89 88 88 87 87 87 88 90 91 92 93 95 97 97 98 100 101 102 103 105 106 109 110 111 111 112 112 112 112 113 113 112 111 109 108 108
112 114 115 116 116 117 118 118 119 118 118 117 116 115 113 111 110 108 106 105 103 102 102 101 101 100 100 99 98 97 96 95 94 94 93 92 92 92 92 92 92 93 93 93 92 91 90 89 87 87 86 86 86 86 88 89 90 92 94 96 97 99 100 101 102 103 104 105 107 108 109 110 111 112 112 112 112 112 111 110 109 107 105 105 106
113 115 116 117 117 117 116 116 115 114 112 110 108 106 104 102 100 99 98 97 96 96 95 94 93 92 90 89 87 86 86 85 85 84 84 83 83 83 83 84 85 86 87 87 88 88 87 87 86 85 86 86 86 87 89 90 92 94 96 98 100 101 102 103 104 105 105 106 107 108 109 110 111 111 111 111 111 109 108 107 105 103 103 104 105
113 113 114 114 113 113 112 110 107 104 101 99 96 94 93 92 92 91 90 89 88 87 86 85 83 81 80 79 78 77 77 78 78 78 77 77 77 76 77 78 80 81 82 83 85 85 86 86 87 87 88 89 90 91 92 93 95 97 100 101 102 103 104 104 104 104 104 105 106 107 108 109 110 110 110 109 108 106 105 103 102 102 103 105 106
109 108 108 107 106 103 100 96 93 89 87 85 84 83 83 84 84 83 83 82 81 79 78 77 75 73 72 71 70 70 71 72 73 74 74 74 75 75 75 76 77 78 80 81 83 84 85 86 87 88 89 91 92 93 94 95 96 98 100 101 102 102 102 103 103 103 104 105 106 107 108 108 107 107 106 105 104 103 102 102 103 104 105 107 109
104 103 100 97 92 87 83 79 77 75 74 74 75 75 76 76 76 76 75 75 74 73 71 70 68 67 66 65 65 66 67 69 70 71 72 73 74 74 75 76 77 78 79 80 81 83 84 85 86 87 88 89 90 91 92 94 95 96 98 99 99 99 100 102 103 103 104 105 106 106 106 105 103 102 102 101 101 101 101 103 104 106 108 110 113
96 92 87 81 76 72 70 68 68 68 68 68 69 70 70 70 70 69 68 68 67 65 64 63 62 62 62 63 64 65 67 69 71 72 73 74 74 74 75 76 76 77 78 80 81 82 83 85 86 87 89 89 90 91 92 93 94 95 96 98 98 100 101 102 104 104 104 104 104 103 102 100 99 99 99 99 100 101 102 104 106 109 111 113 116
84 78 73 70 67 65 64 64 64 65 65 65 66 66 66 66 66 65 64 63 62 61 61 61 61 62 63 64 65 67 69 71 72 74 75 76 76 75 75 76 76 77 78 79 80 81 82 84 85 86 88 89 90 91 92 93 94 96 97 98 99 100 101 102 103 102 101 100 100 99 98 98 97 98 98 99 101 103 104 106 108 111 113 115 117
72 68 66 64 62 61 62 62 62 63 63 63 64 64 64 64 64 63 63 62 62 62 62 63 63 64 65 66 67 69 71 72 74 75 76 77 77 76 76 76 76 77 78 78 79 80 81 82 83 84 86 86 87 88 89 91 93 94 96 97 97 98 99 99 99 98 97 97 96 97 97 98 98 100 100 102 104 106 107 109 111 112 114 116 118
65 62 62 62 61 61 62 62 61 61 62 63 64 64 64 65 65 66 65 65 66 66 66 66 67 67 68 69 70 72 74 76 77 79 79 80 79 79 78 77 77 77 78 79 79 79 80 81 81 82 83 83 84 85 86 87 89 90 91 92 93 93 94 94 94 95 95 95 96 97 98 99 101 102 103 105 106 108 109 110 112 114 115 117 118
67 65 63 61 61 61 62 62 61 62 63 65 66 66 66 67 68 69 69 70 70 69 69 69 70 70 70 71 73 74 76 78 81 83 84 84 84 83 81 79 78 79 79 80 80 80 81 81 82 82 82 82 83 83 84 85 86 87 88 89 90 90 91 92 93 95 96 96 98 99 100 101 102 104 105 106 107 109 110 111 112 114 115 117 118
71 70 66 63 61 60 61 63 63 64 65 67 68 69 69 69 69 70 70 71 72 72 72 72 72 72 72 73 74 75 77 81 84 86 87 87 87 86 85 82 81 80 81 82 82 83 83 84 84 84 84 84 85 85 85 86 86 87 88 89 90 91 92 93 95 96 96 97 99 100 101 102 103 105 106 107 108 110 111 112 113 114 116 117 119
74 72 70 68 66 64 64 65 65 65 66 66 67 68 69 69 69 68 69 69 70 71 71 72 72 72 73 74 75 76 79 83 86 89 90 91 91 90 88 85 83 82 82 82 83 84 85 85 85 86 86 86 86 86 86 86 87 88 88 89 90 91 93 94 95 96 97 98 100 101 103 104 105 107 108 109 111 112 113 114 115 116 118 119 121
79 78 77 76 74 72 70 69 67 67 67 67 68 68 68 69 69 69 69 69 70 70 71 72 73 73 74 75 76 79 82 85 89 92 94 95 95 94 92 89 86 84 83 83 84 85 85 85 85 86 86 86 86 86 86 86 87 88 89 90 91 92 94 95 96 97 99 100 102 103 105 107 109 110 111 113 114 115 116 117 118 120 121 122 125
83 84 85 84 83 81 80 77 75 73 72 72 71 71 71 72 72 72 72 72 72 73 74 75 76 76 77 78 80 83 86 89 93 96 97 98 98 98 96 93 90 87 85 85 85 86 86 85 86 86 87 87 87 87 88 89 90 91 92 93 94 95 96 98 99 100 102 104 105 106 108 110 112 114 115 116 117 118 119 121 122 123 125 126 128
87 88 89 90 89 89 88 87 84 82 80 78 77 76 76 76 77 77 76 76 76 77 78 79 80 80 81 83 85 88 90 94 97 99 101 102 102 101 99 96 93 89 87 86 86 87 87 87 87 88 89 90 90 91 91 92 93 94 95 96 97 98 99 101 102 104 105 107 108 110 112 113 115 117 118 119 120 121 123 124 125 127 128 129 130
89 90 92 93 94 95 95 94 91 88 86 84 83 83 83 83 83 82 82 81 82 82 83 84 85 86 87 88 90 92 95 98 101 103 104 105 105 105 103 100 95 91 89 88 88 88 88 88 89 90 91 92 93 94 94 95 96 97 98 99 100 101 103 104 105 107 108 110 111 113 115 116 118 119 120 121 123 124 125 127 128 129 130 131 132
90 92 93 95 98 99 99 97 94 92 90 89 89 89 90 90 89 88 88 88 89 90 90 90 91 92 93 94 96 98 101 103 106 107 108 108 108 108 106 103 98 93 91 90 90 90 91 91 91 91 92 93 94 95 96 97 99 100 101 103 104 105 106 107 109 110 111 113 114 116 118 119 121 122 123 124 125 127 128 129 130 131 132 134 135
92 94 95 98 100 102 101 98 96 94 93 93 94 95 96 95 95 94 94 95 96 96 97 97 97 98 99 100 102 104 107 109 111 112 112 112 112 111 109 106 101 95 92 91 92 92 92 92 93 93 93 94 96 97 98 100 101 103 105 106 107 108 109 111 112 113 114 116 118 119 121 122 124 125 126 127 128 129 130 131 133 134 135 137 138
95 97 99 101 103 103 101 99 97 96 96 97 98 99 100 100 100 99 100 101 102 102 102 103 103 104 105 106 108 110 112 114 116 117 117 117 117 115 112 108 103 97 93 92 93 93 94 94 95 95 96 96 97 99 100 102 104 105 107 108 110 111 113 114 115 117 118 120 122 123 124 125 127 128 129 130 131 132 133 134 135 137 138 140 141
99 101 103 104 104 103 102 100 100 99 100 100 102 103 104 105 105 105 106 107 108 108 108 108 109 110 111 112 114 116 118 120 121 122 122 121 120 118 115 111 105 98 94 92 93 94 95 96 96 97 98 98 99 101 102 104 105 107 109 111 113 114 116 117 119 121 122 124 125 126 127 128 130 131 133 133 134 136 137 138 139 140 141 143 143
104 105 105 104 104 104 103 103 102 102 103 104 105 107 107 108 108 109 110 112 113 113 114 114 115 116 117 118 119 121 122 124 126 127 126 125 123 120 117 113 106 99 94 93 93 94 96 97 98 98 99 101 102 103 105 106 108 110 112 114 116 117 119 121 123 124 126 127 128 129 130 132 133 135 136 137 138 139 140 141 142 143 145 146 146
107 106 105 105 105 105 104 104 105 105 106 107 108 109 110 111 112 113 115 116 117 118 119 120 120 121 122 123 124 125 126 128 130 130 129 127 124 121 118 113 106 99 95 94 93 94 95 97 98 99 101 102 104 106 107 109 111 113 115 117 119 121 122 124 126 127 128 129 130 132 133 135 137 138 139 140 141 142 143 144 145 146 147 148 148
107 107 107 107 107 106 106 106 107 107 109 110 111 112 114 115 116 117 119 120 121 123 123 124 125 126 127 128 129 129 131 132 134 134 132 129 126 122 118 112 105 99 96 95 94 95 95 96 97 99 101 104 106 108 110 112 114 116 118 120 122 124 125 127 128 130 131 132 134 135 136 138 140 141 143 144 145 146 146 147 148 149 149 149 148
107 108 109 109 108 107 108 108 109 110 112 113 115 116 118 119 120 121 123 124 125 126 127 128 129 130 132 133 133 134 135 137 138 137 134 131 127 123 117 111 104 99 97 97 97 97 98 98 99 101 103 106 108 111 113 116 118 120 122 123 125 126 128 130 131 133 135 136 137 138 140 141 143 144 146 147 148 148 149 150 150 150 149 148 147
110 111 111 110 109 109 110 110 111 113 115 117 118 120 121 122 124 125 126 128 129 130 131 132 133 135 136 137 138 138 140 141 141 140 136 132 126 121 115 109 103 100 99 99 99 100 101 102 103 105 107 109 112 115 117 119 121 123 125 126 128 129 131 133 135 136 138 140 141 142 143 144 146 147 148 149 150 150 150 150 150 149 148 146 145
113 112 111 111 111 111 112 113 114 116 118 120 122 123 125 126 127 129 130 131 132 133 135 136 137 139 140 141 142 143 144 144 144 141 137 131 125 120 113 107 103 102 101 101 102 103 104 105 106 108 110 112 115 117 120 122 124 126 128 130 131 133 135 137 138 140 142 143 145 146 147 148 148 149 150 151 151 150 149 148 147 146 144 143 141
114 113 113 113 113 114 115 116 118 119 121 123 125 127 129 130 131 133 134 135 136 138 139 140 141 142 143 144 145 146 146 146 145 142 136 130 124 118 112 107 105 104 104 104 105 106 107 109 110 112 114 116 118 120 123 125 127 129 131 133 135 137 138 140 142 143 145 146 148 149 149 150 150 150 150 149 148 147 146 144 142 141 139 136 134
115 115 115 116 116 117 118 120 121 123 125 127 129 130 132 134 135 136 138 139 140 142 143 144 145 146 147 148 148 148 148 148 146 141 134 128 122 116 111 109 108 108 108 109 109 111 112 113 115 117 118 120 122 124 126 128 130 132 134 136 138 140 142 144 145 147 148 149 150 150 150 149 149 148 146 145 144 142 140 138 135 133 130 128 125
117 118 119 119 120 121 122 123 125 127 129 130 132 134 135 137 138 140 141 143 144 145 146 147 148 149 150 150 151 151 150 148 144 138 132 125 120 115 113 112 112 112 112 113 114 115 117 118 120 122 123 125 126 128 130 132 134 136 138 140 142 144 145 147 148 149 149 149 148 147 146 145 144 142 140 138 136 134 131 129 126 124 121 119 116
121 122 122 123 123 124 125 127 128 130 132 134 135 137 139 140 142 143 145 146 147 148 149 150 151 152 152 152 152 152 150 147 142 135 129 124 119 116 115 115 115 116 116 117 118 120 121 123 124 126 128 129 131 133 135 136 138 140 142 143 145 146 147 147 147 147 146 144 143 141 139 137 135 133 131 128 126 124 122 119 117 114 112 110 108
125 125 125 125 126 127 129 130 132 134 136 138 139 141 143 144 146 147 148 149 150 151 152 153 154 154 154 154 153 152 149 145 139 133 128 123 120 119 118 118 119 120 121 122 123 125 126 128 129 131 133 134 136 137 139 140 142 143 144 145 145 145 144 144 142 141 139 137 135 132 130 128 125 123 121 119 117 114 112 110 108 106 104 102 100
Wind_Direction
269 270 270 271 271 272 272 273 274 275 276 277 277 278 279 279 280 281 282 283 284 285 285 286 287 287 288 289 289 290 290 291 292 292 293 294 294 295 295 296 296 297 297 298 298 298 299 299 299 300 300 300 301 301 301 301 301 301 302 302 302 302 303 303 304 305 306 307 307 307 308 308 309 309 309 309 310 310 311 312 313 313 314 315 315
270 270 271 271 272 273 273 274 275 276 277 277 278 279 279 280 280 281 281 282 283 284 285 285 286 287 288 288 289 289 290 291 291 292 293 293 294 294 295 295 296 296 297 298 298 298 298 299 299 299 300 300 300 300 300 301 301 301 301 301 301 302 302 303 304 305 305 306 306 306 307 307 308 308 308 309 309 310 311 312 312 313 314 315 315
271 272 272 273 273 274 275 275 276 277 277 278 279 279 279 280 280 280 281 281 282 283 284 285 285 286 287 288 288 289 290 290 291 291 292 292 293 294 294 295 295 296 296 297 297 297 298 298 298 298 299 299 299 299 299 300 300 300 300 300 301 301 301 302 303 304 304 305 305 305 306 306 307 307 308 308 309 310 311 311 312 313 314 314 315
274 274 274 274 275 275 276 276 277 278 278 279 280 280 280 281 281 282 282 282 283 283 284 285 285 286 287 287 288 288 289 289 290 291 291 292 292 293 293 294 294 294 295 295 296 296 296 296 297 297 297 297 297 298 298 298 298 298 299 299 299 300 301 302 303 303 303 303 304 304 305 305 306 307 307 308 309 310 310 311 312 313 313 314 314
275 275 275 276 276 276 277 277 278 278 279 279 280 280 281 282 282 283 283 284 284 285 285 285 286 287 287 288 288 288 289 289 290 291 291 291 292 292 293 293 293 293 294 294 294 294 295 295 295 295 295 296 296 296 296 297 297 297 298 298 299 300 301 301 302 302 302 302 303 304 304 305 305 306 307 308 309 309 310 311 312 312 313 313 314
275 275 275 275 276 276 277 277 278 278 279 279 280 280 281 282 282 283 284 284 285 285 286 286 287 287 288 288 289 289 290 290 290 291 291 291 292 292 292 292 292 293 293 293 293 293 293 294 294 294 295 295 295 296 296 296 296 297 297 298 299 299 300 300 300 300 301 301 302 303 304 304 305 306 307 308 308 309 310 311 311 312 312 313 313
275 275 275 275 276 276 277 277 278 279 279 280 280 281 281 282 282 283 283 284 284 285 286 286 287 287 288 288 289 289 290 290 290 290 290 291 291 291 291 291 291 292 292 292 293 293 293 294 294 294 295 295 295 295 295 296 296 296 297 298 298 299 299 299 299 299 300 301 302 303 303 304 305 306 307 307 308 309 309 310 311 311 312 312 313
275 275 276 276 277 277 278 278 279 279 280 280 281 281 281 282 282 283 283 284 284 285 286 286 287 287 288 288 289 289 290 290 290 290 290 290 291 291 291 291 291 291 292 292 293 293 293 294 294 294 294 294 295 295 295 295 296 297 297 297 298 298 298 298 298 299 300 301 302 302 303 304 305 306 306 307 307 308 309 310 310 310 311 312 312
275 276 276 277 278 279 279 280 280 280 281 281 281 282 282 282 282 283 283 284 285 285 286 286 287 287 288 288 289 289 289 289 289 290 290 290 291 291 291 291 291 292 292 292 292 293 293 293 293 293 294 294 294 295 295 296 296 296 296 296 296 297 297 298 298 299 300 300 301 302 303 304 304 305 306 307 307 308 309 309 309 309 310 311 311
275 276 277 278 278 279 280 280 280 281 281 281 282 282 282 283 283 284 285 285 286 286 287 287 287 288 288 289 289 289 289 289 289 290 290 291 291 291 292 292 292 292 292 292 292 292 292 292 293 293 293 293 294 294 295 295 295 295 295 295 296 296 297 297 298 299 299 300 301 302 303 303 304 305 306 306 307 308 308 308 308 308 309 310 311
276 277 277 278 278 279 280 280 281 281 281 282 282 282 283 284 284 285 286 286 287 288 288 289 289 289 290 290 290 290 290 291 291 291 291 291 291 291 291 291 291 291 291 291 291 292 292 292 292 292 292 293 293 293 293 293 294 294 294 295 295 296 297 297 298 298 299 300 301 302 302 303 304 305 306 306 307 307 307 307 307 308 309 310 311
277 278 278 279 279 280 281 281 282 282 282 282 283 283 284 284 285 286 287 288 288 289 289 290 290 290 290 290 291 291 291 291 291 290 290 290 290 290 290 290 291 291 291 291 291 291 291 291 291 291 291 292 292 292 292 292 293 293 294 295 295 296 297 297 297 298 299 300 301 302 302 303 304 305 305 306 306 306 305 306 306 307 308 310 311
278 279 279 280 281 281 282 282 283 283 283 284 284 285 285 286 286 287 288 288 288 289 289 289 289 289 290 290 290 290 290 290 289 289 289 289 289 289 290 290 290 290 290 290 290 290 290 290 290 290 291 291 291 291 291 292 293 293 294 295 295 296 296 297 297 298 300 300 301 301 302 303 304 304 305 305 305 305 305 305 306 307 308 310 311
279 280 280 281 282 282 283 283 283 284 284 285 285 285 286 286 287 287 288 288 288 288 289 289 289 289 289 289 289 289 289 288 288 288 288 288 288 288 288 288 288 289 289 289 289 289 289 290 290 290 290 290 290 291 291 292 293 293 294 295 295 296 296 297 298 299 300 300 300 301 302 303 303 303 303 304 304 304 305 305 306 308 309 310 310
279 280 281 282 282 283 283 284 284 284 285 285 286 286 286 287 287 287 288 288 288 288 288 288 288 288 288 288 288 288 288 288 288 288 288 288 288 288 288 288 288 289 289 289 289 289 289 289 289 290 290 290 290 290 291 292 293 294 294 295 295 296 297 297 298 298 299 299 300 301 301 302 302 302 303 303 303 304 305 306 307 308 309 309 310
279 280 281 282 283 283 284 284 284 285 285 286 286 287 287 288 288 288 289 289 289 289 289 288 288 288 288 288 288 288 288 288 288 288 288 288 288 288 289 289 289 289 289 289 289 290 290 290 289 289 289 290 290 291 292 292 293 293 294 295 296 296 296 297 297 297 298 299 300 300 301 301 301 302 302 303 303 304 305 306 307 307 308 309 310
279 280 281 282 283 283 284 284 285 286 286 287 288 288 289 289 290 290 290 290 290 290 290 290 289 289 289 289 289 289 288 288 288 288 288 288 289 289 290 290 290 290 290 290 290 290 290 290 290 290 290 290 291 292 292 293 293 294 295 296 296 295 295 296 296 297 298 299 299 300 300 300 301 302 302 303 304 304 305 306 307 307 308 309 310
280 280 281 282 283 284 284 285 286 287 287 288 289 289 290 290 291 291 291 291 291 291 291 290 290 290 289 289 288 288 288 287 288 288 288 289 290 290 290 291 291 291 291 291 291 291 290 290 290 290 291 291 292 293 293 294 294 295 295 295 295 294 295 296 296 296 297 298 299 299 300 300 301 302 303 303 304 304 305 306 307 307 308 309 309
280 281 281 282 283 284 285 286 287 288 289 289 290 290 291 291 291 292 292 291 291 291 290 289 289 289 288 287 287 287 287 288 288 289 290 291 291 291 292 292 292 292 292 292 291 291 291 291 291 292 292 293 293 294 294 295 295 295 295 295 294 294 295 295 295 296 297 298 299 300 300 301 301 302 303 303 304 304 305 306 307 307 308 308 308
280 281 282 283 284 285 286 287 287 288 289 289 290 290 291 291 291 291 291 290 289 289 289 288 288 287 287 287 287 288 289 289 291 291 292 293 293 293 293 293 293 293 292 292 292 292 292 292 292 293 293 294 294 295 295 294 294 294 294 294 293 294 294 295 296 297 298 299 299 300 300 300 301 302 302 303 304 305 305 306 307 307 307 308 308
280 281 282 283 284 285 286 287 287 288 289 289 290 290 290 290 290 289 289 288 288 287 287 287 287 287 288 289 290 291 292 293 294 294 295 295 295 296 295 295 295 294 294 293 293 292 292 293 293 293 293 294 294 294 294 293 293 293 293 293 293 294 294 295 296 297 298 299 299 299 300 300 301 302 303 303 304 305 305 306 306 307 307 307 307
280 281 282 283 284 285 286 286 287 288 289 289 289 289 289 289 288 287 287 287 287 287 287 288 288 290 291 293 294 295 296 296 297 297 298 299 299 299 299 299 298 297 296 295 294 293 292 292 292 292 292 292 292 292 292 292 292 292 292 292 293 294 295 296 296 297 297 298 298 299 299 300 301 302 303 304 304 305 305 306 306 306 306 306 306
280 281 282 283 285 286 286 287 288 288 288 288 288 288 287 287 286 286 286 287 288 289 290 292 293 295 296 298 299 299 299 300 300 300 300 301 301 301 301 300 300 299 297 296 294 293 292 291 291 290 290 290 290 290 290 291 291 291 292 292 293 294 295 295 296 296 297 297 298 298 299 300 302 303 303 304 304 305 305 305 305 305 304 305 305
281 282 283 285 286 287 288 288 289 288 288 288 288 287 287 287 287 288 289 290 291 293 294 296 297 299 300 301 302 303 303 303 304 304 304 303 303 302 301 300 300 299 298 297 295 294 293 292 291 290 290 290 289 290 290 290 291 291 292 292 293 294 295 295 295 296 297 297 298 299 300 301 302 303 303 304 304 304 304 304 304 304 304 305 306
282 284 285 287 288 289 290 290 290 290 290 289 289 289 289 289 290 291 292 293 295 296 298 299 300 301 302 303 304 306 307 308 308 308 307 307 305 304 303 302 300 299 298 297 296 295 294 293 292 292 291 291 291 291 291 291 291 292 292 293 293 294 294 294 295 296 297 297 298 300 301 302 302 303 303 304 304 304 304 304 304 304 305 306 306
284 285 287 289 291 293 293 293 292 292 292 292 292 292 292 293 293 294 295 296 298 298 299 300 300 301 302 304 305 307 309 310 310 310 309 308 307 306 304 303 302 301 300 299 297 296 296 295 294 293 293 292 292 292 292 292 292 292 292 293 293 294 294 295 295 297 298 299 299 300 301 302 302 302 303 304 304 304 305 305 305 305 306 306 306
284 287 290 293 295 296 296 295 295 295 295 295 294 294 294 294 294 295 296 297 297 298 298 298 299 301 302 304 306 308 310 311 312 312 311 309 307 306 304 303 302 301 301 300 299 298 297 296 295 294 294 294 294 293 293 293 293 293 293 294 294 295 295 296 297 298 298 299 300 300 301 301 302 302 303 304 304 304 304 305 305 305 305 305 305
287 292 297 298 297 296 295 295 295 295 295 295 295 295 295 295 294 293 294 295 295 296 297 297 298 300 301 304 306 308 310 312 313 314 314 313 310 307 304 302 300 299 298 298 298 297 297 296 295 295 295 295 295 295 294 294 294 294 294 294 295 295 296 297 297 298 299 299 300 300 301 301 302 302 303 303 303 303 303 304 304 304 304 304 305
289 295 300 301 298 295 293 293 294 294 295 295 295 295 295 294 293 293 293 293 294 294 296 297 297 298 300 302 305 308 311 313 315 316 317 317 315 311 307 303 300 298 296 295 295 296 296 295 295 295 295 295 295 295 294 294 294 294 294 294 295 296 296 297 298 298 299 299 300 301 301 302 302 302 303 303 303 303 303 303 303 304 304 304 305
293 296 299 299 297 293 291 290 291 291 292 292 292 292 292 292 292 292 292 292 293 293 294 296 297 298 300 303 306 309 313 316 318 319 320 319 318 315 311 306 301 297 295 293 293 293 293 293 293 293 293 293 294 294 294 294 294 294 295 295 296 297 297 297 298 298 299 300 301 301 301 302 302 302 302 302 303 303 303 303 304 304 304 304 305
296 296 297 297 295 291 289 289 289 289 289 289 288 288 289 290 291 292 292 291 291 292 293 295 297 299 301 304 307 311 315 318 320 321 321 321 320 318 314 309 303 298 295 293 292 292 292 292 292 292 292 292 292 293 293 294 294 294 295 296 296 296 297 297 297 298 299 300 300 301 301 301 301 302 302 302 303 303 303 304 304 304 304 304 305
297 296 296 296 295 293 291 290 289 288 288 289 289 289 289 290 292 294 294 293 293 293 294 296 299 301 303 306 309 312 316 318 320 321 321 322 321 320 317 311 305 300 296 294 292 292 291 291 291 291 291 292 292 292 293 293 294 294 295 296 296 296 297 297 298 299 299 300 300 301 301 301 301 302 302 302 303 303 304 304 304 304 304 304 304
299 299 300 300 299 297 295 293 292 290 290 292 293 293 293 294 295 297 297 297 297 296 297 299 301 303 305 307 311 314 316 318 320 321 321 322 322 321 319 313 307 301 298 295 293 292 292 292 292 292 292 292 292 292 293 293 294 295 296 296 297 297 297 298 298 299 300 300 301 301 302 302 302 302 303 303 303 304 304 304 304 304 304 304 304
300 301 303 303 303 302 301 300 299 298 297 297 297 297 297 299 300 300 300 301 300 300 301 302 303 304 306 309 312 314 317 318 319 320 321 321 322 322 320 315 309 302 298 296 294 293 292 292 293 293 292 292 292 292 292 293 294 295 296 297 298 298 298 299 300 300 301 301 302 302 302 302 302 303 303 303 304 304 304 304 304 304 304 304 304
300 301 303 303 304 304 304 303 303 303 302 301 301 302 302 303 303 304 304 304 304 304 304 304 305 307 309 311 313 315 317 318 319 320 320 321 321 321 320 317 311 303 298 295 294 293 292 292 292 292 292 292 292 292 292 293 294 295 297 297 298 299 299 300 300 301 301 301 302 302 302 302 302 302 302 303 303 303 303 303 303 303 303 303 304
299 300 301 302 303 304 304 304 304 304 304 304 305 305 306 307 307 307 307 307 307 307 307 307 307 309 310 312 314 315 316 317 318 319 319 320 321 321 320 317 312 305 298 295 293 293 292 291 291 292 292 292 292 292 293 293 294 295 296 297 298 299 299 300 300 300 301 301 301 301 301 301 301 301 301 301 301 301 301 302 302 303 303 303 304
297 299 300 301 302 303 304 303 303 303 304 305 306 307 308 308 309 309 309 309 309 309 308 308 309 310 312 313 314 315 316 317 317 318 318 319 320 320 319 317 313 306 299 294 292 292 291 291 290 291 291 291 292 292 292 293 294 295 296 297 297 298 299 299 299 299 299 300 300 300 300 300 300 300 300 300 300 301 301 302 302 303 303 303 303
296 297 298 299 301 302 302 302 303 303 304 305 306 307 308 308 309 309 309 309 309 309 309 310 311 311 313 313 314 315 316 316 316 317 317 318 319 319 319 317 313 307 300 295 292 291 290 290 290 290 290 291 291 291 292 292 293 294 295 296 296 297 298 298 298 298 298 299 299 299 299 299 299 300 300 300 301 301 301 301 302 302 302 302 303
294 296 297 299 300 301 302 302 303 303 304 305 305 306 307 308 308 308 308 309 309 309 309 310 311 312 313 313 314 315 315 315 316 316 317 317 318 319 318 316 313 308 301 296 292 291 290 290 289 289 290 290 290 291 291 292 292 293 294 295 296 296 297 297 297 298 298 299 299 299 299 299 299 300 300 300 300 300 300 301 301 301 301 302 302
293 295 296 298 300 301 302 302 303 303 303 304 305 305 306 306 307 307 307 308 308 309 310 310 311 312 312 313 313 314 314 314 315 315 316 317 318 318 317 315 312 308 302 298 294 292 291 290 289 289 289 289 290 290 291 292 292 293 294 295 296 296 297 297 298 298 298 299 299 299 299 299 299 299 299 299 299 300 300 300 300 301 301 301 302
293 294 296 297 299 300 301 302 302 303 303 303 304 304 305 305 305 305 306 307 308 309 310 310 311 311 312 312 312 312 313 313 314 315 316 316 317 317 316 314 311 307 303 299 296 293 292 291 290 289 289 289 290 291 291 292 293 294 294 295 296 296 297 297 298 298 298 298 298 298 298 298 298 298 298 298 299 299 299 299 300 300 300 301 301
292 293 295 296 297 299 300 301 301 302 302 303 303 303 303 303 304 304 305 306 307 308 309 309 310 310 311 311 311 311 312 313 314 314 315 315 315 315 314 313 310 306 302 300 297 295 293 292 291 290 290 290 291 291 292 293 294 294 295 295 296 297 297 297 297 297 297 297 297 297 297 297 297 297 298 298 298 298 299 299 299 299 299 300 300
291 292 293 295 296 297 299 300 300 301 302 302 302 302 302 302 303 303 304 305 306 307 308 308 309 309 310 310 310 310 311 312 313 314 314 314 314 313 313 311 308 304 302 300 299 297 296 294 293 292 292 292 292 293 293 294 294 295 295 296 296 296 296 296 296 296 296 296 296 296 296 296 296 296 297 297 297 298 298 298 298 298 299 299 299
290 292 293 294 295 296 298 299 299 300 300 301 301 301 301 301 302 302 303 305 306 306 307 307 308 308 309 309 309 310 310 311 313 313 313 313 312 312 311 309 306 303 301 301 299 298 297 296 295 295 294 294 294 294 294 294 295 295 295 295 295 295 295 295 295 295 295 295 295 295 295 295 295 296 296 296 297 297 297 297 297 298 298 298 299
290 292 293 294 294 295 297 297 298 298 299 299 300 300 300 301 301 302 303 304 305 306 306 307 307 308 308 308 309 309 310 311 312 312 312 311 311 310 308 306 304 302 301 300 299 298 298 297 297 296 295 295 295 295 295 295 295 294 294 294 294 294 294 294 294 294 294 294 294 294 294 295 295 295 295 295 296 296 296 296 297 297 297 297 298
290 292 292 293 294 294 295 296 296 297 297 298 299 299 300 301 301 302 303 304 305 305 306 306 306 307 307 308 308 309 309 310 311 311 310 309 308 307 305 303 302 301 300 299 298 298 297 297 296 296 295 295 295 295 294 294 294 294 294 294 293 293 293 293 293 293 293 293 293 294 294 294 294 294 295 295 295 295 296 296 296 296 296 296 297
290 291 292 292 293 293 294 294 295 295 296 297 298 299 300 300 301 302 303 303 304 305 305 305 306 306 307 307 308 308 309 309 310 309 309 307 306 305 303 301 300 300 299 298 298 297 297 296 296 296 295 295 294 294 294 293 293 293 293 293 292 292 292 292 292 293 293 293 293 293 294 294 294 294 294 295 295 295 295 295 295 295 295 295 295
289 290 291 291 292 292 293 293 294 294 295 296 297 298 299 300 301 302 302 303 303 303 304 304 305 305 306 306 307 307 308 308 308 308 307 305 304 302 301 300 300 299 299 298 298 297 296 296 295 295 294 294 293 292 292 292 292 292 292 292 292 292 292 292 292 292 293 293 293 293 294 294 294 294 294 294 294 294 294 294 294 294 294 294 294
289 289 290 290 291 291 291 292 293 293 295 296 297 298 299 300 300 301 301 302 302 303 303 304 304 305 305 306 306 307 307 307 307 306 304 303 301 300 299 299 299 298 298 297 297 296 295 295 294 293 293 292 292 292 292 292 292 292 292 292 292 292 292 292 293 293 293 293 293 294 294 294 294 294 294 294 293 293 293 293 293 293 293 293 293
288 288 289 289 289 290 290 291 292 293 294 295 296 297 298 299 300 300 300 301 301 302 303 303 304 304 305 305 305 306 306 306 305 303 302 300 299 299 298 298 298 297 297 296 295 295 294 294 293 293 293 292 292 292 292 292 292 292 293 293 293 293 293 293 294 294 294 294 294 294 294 294 293 293 293 293 293 292 292 292 293 293 293 293 293
286 287 287 288 288 289 290 291 292 293 294 295 296 297 297 298 298 299 299 300 301 301 302 302 303 303 304 304 304 304 304 304 303 301 300 299 298 298 298 297 297 296 296 295 294 294 293 293 293 293 293 292 293 293 293 293 294 294 294 294 294 294 294 294 294 294 294 294 294 294 293 293 293 293 292 292 292 292 292 292 293 293 293 293 293
Height
10766 10765 10765 10764 10764 10762 10761 10761 10760 10759 10758 10757 10756 10754 10753 10752 10750 10747 10745 10742 10738 10735 10732 10730 10728 10727 10727 10725 10722 10718 10714 10710 10706 10703 10700 10697 10693 10688 10684 10681 10678 10673 10670 10668 10664 10659 10654 10649 10645 10640 10636 10631 10625 10620 10614 10608 10602 10596 10590 10584 10577 10570 10564 10558 10553 10548 10544 10538 10532 10526 10521 10516 10510 10503 10496 10489 10483 10477 10473 10469 10464 10458 10451 10444 10438
10758 10757 10756 10755 10755 10754 10753 10752 10751 10750 10749 10747 10746 10745 10744 10743 10741 10739 10737 10734 10731 10728 10724 10721 10719 10718 10717 10715 10712 10709 10705 10701 10697 10694 10690 10687 10683 10679 10674 10670 10667 10663 10660 10657 10653 10648 10643 10639 10634 10630 10625 10620 10614 10609 10603 10598 10592 10586 10580 10573 10567 10560 10554 10548 10543 10539 10534 10528 10522 10516 10511 10506 10500 10492 10485 10478 10471 10466 10461 10456 10452 10447 10440 10432 10427
10748 10748 10747 10747 10746 10745 10744 10743 10741 10740 10739 10737 10736 10735 10733 10732 10731 10729 10727 10725 10722 10719 10716 10713 10711 10709 10707 10705 10702 10699 10696 10692 10688 10684 10681 10677 10674 10669 10664 10660 10657 10654 10650 10646 10642 10637 10632 10628 10623 10619 10614 10609 10603 10598 10593 10587 10581 10575 10569 10563 10557 10551 10545 10540 10534 10529 10523 10517 10511 10506 10501 10495 10489 10482 10474 10468 10461 10454 10449 10444 10439 10436 10430 10422 10415
10739 10738 10738 10737 10736 10735 10734 10733 10732 10731 10729 10728 10726 10724 10722 10721 10720 10718 10717 10714 10712 10709 10707 10704 10701 10699 10698 10695 10692 10689 10686 10682 10678 10674 10671 10667 10664 10660 10655 10650 10647 10644 10641 10636 10632 10627 10622 10617 10613 10608 10603 10598 10592 10587 10582 10576 10570 10564 10558 10552 10546 10541 10536 10531 10526 10519 10511 10505 10500 10496 10490 10484 10478 10471 10464 10458 10451 10444 10439 10433 10428 10424 10419 10412 10404
10728 10727 10726 10726 10726 10725 10724 10724 10723 10722 10720 10718 10717 10714 10713 10711 10709 10708 10706 10704 10702 10699 10696 10694 10691 10689 10687 10684 10681 10678 10675 10672 10668 10664 10660 10657 10654 10650 10646 10640 10635 10632 10631 10627 10621 10617 10611 10606 10602 10597 10591 10586 10581 10576 10571 10565 10559 10553 10548 10542 10536 10530 10526 10521 10515 10508 10500 10494 10490 10485 10479 10473 10467 10461 10454 10447 10441 10434 10429 10424 10419 10414 10408 10401 10394
10717 10716 10716 10715 10715 10715 10714 10713 10712 10711 10710 10709 10707 10705 10703 10701 10699 10697 10695 10693 10691 10688 10685 10683 10680 10678 10676 10673 10670 10667 10664 10661 10657 10653 10649 10645 10642 10639 10635 10630 10624 10619 10617 10615 10610 10606 10600 10595 10590 10585 10580 10575 10570 10565 10559 10553 10547 10542 10537 10531 10525 10520 10516 10510 10503 10496 10489 10484 10480 10475 10469 10462 10457 10451 10445 10438 10432 10425 10418 10413 10407 10403 10398 10392 10384
10706 10706 10705 10705 10705 10704 10704 10703 10702 10701 10700 10698 10697 10695 10693 10691 10689 10686 10684 10682 10680 10677 10675 10672 10669 10667 10665 10662 10659 10656 10653 10650 10645 10641 10637 10633 10630 10627 10624 10619 10614 10609 10604 10601 10597 10593 10588 10583 10578 10572 10567 10562 10558 10552 10547 10541 10535 10531 10526 10520 10515 10510 10505 10499 10492 10485 10479 10474 10470 10464 10459 10453 10447 10441 10436 10429 10423 10417 10411 10404 10396 10390 10387 10382 10374
10695 10695 10694 10694 10694 10694 10693 10693 10692 10690 10689 10688 10686 10684 10682 10680 10678 10676 10674 10672 10669 10667 10665 10662 10659 10656 10653 10650 10648 10645 10642 10638 10633 10628 10624 10621 10618 10615 10611 10607 10603 10598 10593 10589 10584 10580 10575 10570 10565 10560 10554 10550 10545 10540 10534 10529 10524 10519 10514 10509 10504 10499 10493 10487 10481 10474 10469 10464 10460 10455 10449 10444 10438 10432 10427 10420 10415 10409 10403 10397 10389 10381 10375 10372 10365
10686 10684 10684 10684 10683 10683 10682 10682 10681 10679 10678 10676 10674 10672 10670 10668 10667 10665 10663 10661 10659 10656 10654 10651 10648 10645 10642 10638 10635 10633 10630 10626 10621 10616 10611 10608 10605 10601 10598 10594 10590 10586 10581 10577 10572 10567 10563 10558 10552 10547 10542 10537 10532 10527 10522 10517 10512 10507 10503 10498 10493 10487 10482 10476 10469 10463 10458 10454 10450 10445 10440 10435 10430 10424 10418 10412 10405 10400 10394 10388 10381 10374 10367 10363 10358
10677 10675 10675 10674 10672 10672 10671 10671 10670 10668 10667 10665 10663 10661 10659 10657 10655 10653 10651 10649 10647 10645 10643 10640 10636 10633 10630 10626 10622 10619 10616 10612 10608 10604 10599 10595 10590 10586 10583 10579 10575 10571 10567 10563 10558 10554 10549 10544 10539 10534 10529 10524 10519 10515 10510 10505 10500 10495 10491 10486 10481 10476 10470 10464 10458 10452 10447 10444 10440 10436 10431 10426 10421 10416 10410 10403 10396 10390 10385 10378 10371 10366 10360 10354 10348
10667 10666 10665 10663 10662 10661 10660 10660 10659 10658 10656 10654 10652 10650 10648 10646 10644 10642 10640 10638 10635 10632 10629 10626 10623 10619 10616 10612 10608 10604 10600 10597 10593 10589 10586 10581 10577 10573 10569 10565 10562 10557 10553 10549 10544 10540 10535 10530 10526 10521 10517 10512 10507 10502 10498 10492 10487 10483 10480 10475 10470 10464 10459 10452 10447 10441 10437 10434 10431 10427 10421 10417 10413 10408 10402 10395 10388 10381 10375 10368 10362 10357 10352 10346 10339
10655 10654 10653 10652 10651 10650 10649 10648 10647 10646 10645 10643 10640 10639 10636 10635 10633 10631 10629 10626 10623 10620 10616 10613 10609 10605 10602 10598 10594 10590 10586 10582 10578 10575 10571 10568 10564 10560 10556 10552 10548 10544 10539 10535 10530 10526 10521 10517 10513 10508 10504 10500 10495 10490 10485 10480 10476 10472 10468 10464 10458 10453 10447 10441 10436 10431 10428 10425 10422 10416 10411 10408 10404 10399 10392 10386 10379 10372 10365 10359 10353 10348 10343 10338 10332
10643 10642 10641 10640 10640 10639 10638 10637 10635 10634 10633 10631 10629 10627 10625 10624 10622 10619 10617 10614 10611 10608 10604 10601 10597 10593 10589 10585 10581 10577 10573 10569 10565 10561 10558 10555 10551 10547 10543 10539 10535 10530 10526 10521 10517 10512 10508 10504 10500 10496 10492 10487 10482 10478 10473 10468 10464 10460 10456 10452 10447 10441 10436 10430 10425 10421 10418 10415 10411 10406 10402 10398 10394 10389 10383 10377 10370 10363 10356 10349 10343 10337 10332 10327 10323
10631 10630 10630 10628 10628 10627 10626 10625 10623 10621 10621 10619 10617 10616 10614 10612 10610 10608 10605 10603 10599 10596 10592 10588 10585 10581 10577 10573 10568 10564 10560 10555 10552 10548 10544 10540 10536 10533 10530 10525 10521 10516 10512 10508 10503 10499 10495 10491 10487 10483 10479 10474 10470 10465 10461 10457 10453 10449 10445 10440 10435 10430 10424 10419 10415 10412 10408 10404 10401 10396 10392 10388 10384 10380 10374 10368 10361 10353 10346 10339 10332 10326 10321 10315 10312
10620 10619 10618 10617 10617 10615 10614 10612 10611 10609 10608 10607 10605 10603 10602 10600 10598 10596 10593 10590 10586 10583 10579 10575 10571 10567 10563 10559 10554 10550 10545 10541 10537 10534 10530 10526 10522 10518 10514 10510 10506 10502 10498 10494 10490 10485 10482 10478 10474 10470 10466 10461 10457 10453 10450 10446 10442 10437 10433 10429 10424 10418 10413 10409 10405 10401 10397 10393 10390 10386 10382 10378 10374 10370 10365 10359 10352 10344 10337 10330 10323 10316 10311 10304 10299
10610 10608 10607 10606 10605 10603 10602 10600 10598 10597 10596 10594 10593 10591 10588 10586 10584 10582 10580 10576 10572 10568 10564 10560 10556 10552 10548 10543 10539 10535 10530 10525 10521 10517 10513 10510 10506 10503 10499 10495 10492 10488 10484 10480 10476 10472 10469 10465 10461 10457 10453 10449 10445 10442 10439 10435 10430 10425 10422 10418 10414 10407 10402 10399 10395 10390 10386 10383 10379 10375 10371 10367 10364 10359 10355 10349 10342 10334 10327 10320 10313 10307 10301 10295 10288
10600 10598 10596 10594 10593 10591 10589 10587 10585 10584 10583 10581 10580 10577 10575 10572 10570 10567 10564 10561 10556 10552 10548 10544 10540 10536 10532 10527 10522 10518 10513 10509 10505 10501 10498 10495 10491 10488 10484 10481 10478 10474 10470 10466 10463 10459 10456 10452 10448 10444 10440 10436 10433 10431 10427 10422 10418 10414 10411 10408 10403 10396 10392 10389 10384 10380 10376 10373 10369 10365 10360 10356 10352 10348 10343 10338 10332 10324 10317 10310 10303 10296 10291 10286 10279
10589 10587 10584 10583 10581 10579 10577 10574 10572 10571 10570 10568 10566 10563 10560 10558 10555 10552 10548 10545 10540 10536 10532 10528 10524 10520 10515 10511 10506 10501 10496 10492 10489 10486 10483 10480 10477 10473 10470 10466 10464 10460 10457 10453 10450 10446 10442 10438 10435 10431 10428 10425 10422 10419 10415 10411 10407 10403 10400 10397 10391 10385 10382 10379 10374 10370 10367 10364 10360 10355 10349 10344 10340 10336 10331 10327 10321 10314 10307 10300 10293 10287 10280 10275 10270
10577 10574 10572 10571 10569 10568 10565 10562 10560 10558 10556 10554 10551 10549 10546 10543 10540 10536 10533 10529 10525 10520 10516 10512 10508 10504 10500 10495 10491 10486 10481 10478 10474 10471 10469 10466 10463 10459 10456 10453 10450 10446 10443 10440 10436 10432 10429 10425 10422 10419 10416 10413 10411 10408 10405 10400 10396 10393 10389 10385 10379 10374 10372 10369 10364 10360 10358 10354 10350 10345 10338 10332 10328 10324 10320 10315 10310 10303 10297 10290 10284 10278 10270 10264 10259
10564 10561 10559 10558 10557 10556 10553 10551 10548 10546 10543 10541 10538 10535 10532 10529 10526 10522 10518 10514 10509 10505 10501 10497 10493 10489 10485 10480 10476 10472 10468 10465 10461 10459 10457 10454 10451 10447 10444 10441 10437 10434 10431 10427 10424 10420 10417 10414 10411 10408 10406 10403 10401 10398 10394 10390 10386 10382 10379 10374 10368 10364 10362 10359 10354 10351 10348 10344 10339 10334 10327 10321 10317 10312 10308 10303 10298 10292 10286 10279 10273 10267 10260 10254 10247
10553 10549 10547 10546 10545 10544 10542 10539 10537 10534 10531 10528 10525 10522 10519 10516 10512 10508 10503 10499 10495 10492 10488 10484 10480 10476 10472 10468 10465 10460 10456 10453 10450 10447 10445 10442 10439 10436 10433 10430 10426 10423 10420 10417 10413 10410 10407 10404 10401 10399 10396 10394 10391 10388 10385 10381 10377 10372 10368 10363 10358 10354 10351 10348 10344 10341 10337 10333 10328 10323 10316 10310 10305 10301 10296 10291 10286 10280 10274 10268 10262 10256 10250 10243 10237
10543 10539 10536 10534 10532 10531 10529 10527 10525 10522 10519 10515 10512 10508 10505 10502 10498 10494 10490 10486 10483 10479 10475 10472 10468 10465 10461 10458 10454 10450 10445 10442 10439 10436 10434 10432 10429 10426 10422 10419 10416 10413 10410 10407 10403 10400 10398 10395 10392 10389 10387 10385 10382 10379 10375 10371 10367 10362 10356 10351 10347 10344 10340 10336 10333 10329 10326 10322 10317 10311 10306 10300 10294 10289 10284 10279 10273 10268 10262 10257 10251 10246 10239 10233 10227
10533 10530 10527 10524 10521 10519 10517 10514 10512 10509 10506 10503 10499 10496 10492 10488 10485 10481 10478 10474 10471 10467 10464 10461 10457 10454 10451 10447 10444 10440 10436 10432 10429 10427 10425 10423 10420 10417 10413 10410 10407 10404 10401 10398 10394 10391 10389 10386 10383 10380 10378 10375 10372 10369 10365 10361 10357 10351 10345 10340 10336 10333 10329 10324 10320 10318 10314 10309 10304 10299 10294 10290 10284 10278 10272 10267 10261 10256 10250 10245 10240 10234 10229 10223 10217
10522 10519 10516 10513 10511 10508 10505 10502 10499 10496 10493 10491 10487 10484 10481 10477 10474 10471 10467 10464 10461 10458 10455 10452 10449 10446 10442 10439 10435 10431 10427 10424 10421 10418 10416 10413 10411 10407 10404 10401 10398 10395 10392 10389 10385 10382 10379 10376 10373 10370 10367 10364 10361 10357 10354 10350 10345 10339 10333 10329 10325 10322 10317 10311 10307 10306 10303 10298 10292 10288 10283 10279 10274 10267 10260 10254 10249 10243 10238 10233 10227 10222 10216 10210 10205
10511 10508 10504 10502 10499 10496 10493 10490 10487 10484 10482 10479 10476 10473 10470 10467 10464 10461 10458 10455 10452 10449 10447 10444 10441 10438 10434 10431 10427 10423 10419 10416 10413 10410 10407 10404 10401 10398 10395 10392 10389 10386 10383 10380 10376 10373 10369 10366 10362 10359 10356 10352 10349 10346 10342 10338 10333 10328 10323 10318 10314 10310 10305 10300 10296 10294 10292 10286 10281 10277 10272 10268 10263 10256 10249 10243 10237 10231 10226 10220 10215 10209 10203 10197 10191
10502 10497 10494 10490 10487 10485 10482 10479 10476 10474 10471 10469 10466 10463 10461 10458 10455 10452 10449 10447 10444 10442 10439 10436 10433 10429 10426 10423 10419 10415 10412 10409 10405 10402 10399 10395 10392 10389 10386 10383 10379 10376 10373 10370 10366 10362 10359 10355 10351 10347 10344 10340 10337 10334 10331 10326 10321 10317 10312 10307 10303 10299 10293 10288 10285 10283 10280 10275 10270 10265 10261 10256 10251 10245 10239 10233 10227 10220 10215 10210 10204 10198 10192 10186 10178
10492 10487 10484 10481 10478 10475 10472 10469 10467 10465 10462 10460 10458 10455 10452 10450 10447 10444 10442 10439 10436 10434 10431 10428 10425 10421 10418 10415 10411 10407 10404 10401 10398 10394 10390 10386 10383 10380 10376 10373 10370 10367 10363 10359 10355 10352 10348 10344 10340 10336 10332 10329 10326 10323 10320 10315 10310 10305 10301 10297 10292 10287 10282 10278 10274 10271 10267 10263 10258 10254 10249 10244 10239 10234 10229 10224 10217 10211 10206 10201 10194 10188 10182 10176 10168
10482 10478 10475 10472 10469 10466 10464 10461 10459 10457 10454 10452 10450 10447 10445 10442 10439 10436 10434 10431 10428 10426 10423 10420 10417 10413 10410 10407 10403 10399 10395 10392 10389 10385 10381 10377 10373 10370 10366 10363 10360 10357 10353 10349 10345 10341 10337 10333 10328 10324 10320 10317 10314 10312 10308 10304 10298 10294 10290 10285 10281 10276 10272 10267 10262 10258 10255 10251 10247 10242 10237 10232 10227 10222 10218 10213 10206 10200 10196 10191 10184 10178 10172 10166 10158
10473 10470 10467 10464 10461 10459 10456 10454 10452 10450 10447 10445 10442 10439 10437 10434 10431 10428 10426 10423 10420 10417 10414 10411 10408 10404 10401 10398 10394 10389 10385 10381 10378 10375 10371 10367 10363 10359 10356 10352 10349 10345 10342 10338 10334 10331 10326 10322 10317 10313 10309 10305 10302 10300 10296 10292 10288 10283 10278 10274 10270 10265 10261 10256 10251 10246 10243 10239 10235 10230 10224 10219 10214 10209 10205 10200 10194 10188 10184 10179 10172 10166 10160 10153 10147
10462 10460 10459 10456 10453 10451 10449 10447 10445 10443 10440 10438 10435 10432 10429 10426 10423 10420 10417 10414 10411 10407 10404 10401 10398 10395 10392 10389 10385 10380 10375 10371 10368 10364 10360 10356 10352 10348 10344 10341 10337 10334 10330 10326 10323 10320 10315 10311 10307 10303 10298 10295 10291 10288 10284 10281 10277 10273 10267 10262 10259 10254 10249 10244 10239 10234 10231 10227 10222 10216 10212 10207 10201 10196 10191 10187 10181 10175 10171 10166 10160 10153 10147 10140 10134
10450 10449 10448 10447 10445 10444 10441 10439 10437 10434 10431 10429 10426 10423 10420 10417 10414 10411 10408 10405 10401 10397 10394 10391 10388 10385 10382 10379 10375 10371 10366 10361 10357 10353 10350 10346 10342 10338 10334 10329 10326 10322 10318 10315 10312 10308 10303 10299 10296 10291 10287 10284 10280 10276 10272 10269 10265 10261 10256 10251 10247 10243 10238 10233 10228 10223 10219 10215 10209 10203 10199 10193 10188 10182 10177 10173 10167 10162 10157 10152 10147 10140 10134 10128 10122
10440 10438 10437 10436 10435 10433 10431 10429 10426 10423 10421 10419 10416 10413 10410 10407 10404 10401 10398 10395 10391 10388 10385 10382 10379 10375 10372 10368 10365 10361 10357 10352 10348 10343 10339 10335 10331 10327 10323 10319 10314 10309 10306 10303 10300 10296 10291 10287 10284 10280 10276 10272 10268 10264 10260 10257 10253 10248 10244 10240 10236 10231 10226 10221 10217 10212 10208 10202 10196 10191 10186 10179 10174 10168 10163 10158 10153 10148 10143 10138 10133 10127 10121 10115 10109
10427 10426 10424 10422 10421 10419 10418 10417 10414 10412 10410 10407 10404 10402 10399 10396 10393 10390 10386 10383 10381 10378 10375 10372 10368 10365 10362 10358 10354 10351 10347 10343 10338 10333 10329 10325 10320 10316 10312 10307 10302 10297 10294 10291 10287 10283 10278 10275 10272 10268 10264 10260 10257 10252 10248 10245 10240 10236 10232 10228 10224 10218 10213 10209 10205 10200 10195 10189 10184 10179 10172 10165 10159 10154 10148 10144 10139 10134 10128 10123 10117 10112 10108 10102 10095
10415 10413 10412 10410 10408 10406 10405 10403 10402 10400 10398 10395 10392 10390 10386 10383 10381 10378 10375 10372 10369 10366 10364 10361 10357 10354 10351 10347 10343 10339 10335 10331 10327 10323 10318 10313 10309 10304 10300 10295 10289 10284 10281 10278 10274 10270 10266 10262 10258 10254 10251 10247 10244 10241 10237 10232 10228 10224 10220 10216 10211 10206 10201 10196 10192 10187 10181 10175 10171 10165 10159 10152 10145 10139 10134 10129 10125 10120 10114 10108 10102 10098 10093 10087 10081
10404 10402 10400 10399 10397 10395 10393 10391 10389 10387 10385 10382 10380 10377 10374 10371 10368 10365 10362 10360 10357 10355 10352 10349 10346 10343 10339 10335 10331 10327 10323 10319 10315 10311 10307 10302 10297 10292 10287 10282 10277 10272 10268 10265 10261 10257 10254 10250 10246 10241 10237 10234 10231 10227 10224 10220 10215 10211 10207 10203 10198 10194 10189 10184 10179 10173 10168 10162 10157 10152 10145 10139 10132 10126 10120 10116 10112 10106 10100 10094 10089 10084 10078 10072 10066
10394 10392 10390 10388 10386 10384 10382 10379 10377 10375 10372 10370 10367 10364 10361 10358 10355 10352 10349 10347 10344 10342 10340 10337 10334 10331 10327 10323 10319 10315 10311 10307 10303 10299 10295 10290 10285 10280 10275 10270 10265 10260 10256 10252 10248 10245 10242 10237 10233 10229 10224 10220 10217 10213 10209 10206 10202 10198 10194 10190 10185 10181 10176 10171 10166 10161 10155 10150 10144 10138 10132 10125 10119 10113 10108 10103 10099 10093 10087 10081 10075 10070 10064 10058 10052
10383 10381 10379 10377 10375 10373 10371 10368 10366 10363 10360 10357 10354 10351 10348 10345 10342 10340 10337 10334 10331 10329 10326 10324 10321 10317 10313 10310 10306 10302 10298 10294 10290 10287 10282 10277 10273 10268 10263 10258 10252 10247 10243 10238 10235 10232 10229 10225 10220 10216 10212 10208 10203 10199 10195 10192 10188 10183 10179 10175 10172 10167 10163 10158 10153 10147 10142 10136 10130 10124 10118 10112 10106 10099 10094 10089 10085 10079 10072 10066 10061 10055 10049 10043 10037
10372 10370 10368 10366 10364 10362 10359 10357 10354 10351 10348 10345 10342 10339 10336 10333 10330 10327 10324 10321 10319 10316 10313 10311 10307 10303 10300 10296 10292 10288 10284 10280 10276 10273 10268 10263 10259 10254 10249 10245 10239 10234 10229 10225 10220 10218 10215 10211 10207 10203 10200 10195 10190 10186 10182 10178 10174 10169 10165 10161 10157 10153 10148 10143 10138 10132 10127 10121 10115 10109 10103 10097 10090 10083 10078 10074 10069 10063 10056 10051 10046 10040 10034 10028 10022
10360 10359 10356 10354 10352 10350 10347 10345 10342 10339 10336 10333 10330 10327 10324 10321 10318 10315 10312 10309 10307 10304 10300 10297 10294 10290 10286 10282 10278 10274 10270 10266 10262 10258 10253 10248 10244 10239 10235 10230 10225 10220 10216 10211 10206 10203 10200 10197 10193 10189 10186 10182 10177 10172 10168 10164 10160 10155 10151 10146 10142 10138 10132 10127 10121 10116 10110 10105 10098 10092 10086 10080 10074 10067 10062 10057 10052 10046 10041 10036 10031 10024 10018 10012 10006
10348 10346 10344 10342 10339 10337 10334 10332 10329 10326 10324 10321 10317 10314 10311 10308 10305 10302 10300 10297 10294 10290 10287 10284 10280 10277 10273 10269 10265 10261 10257 10252 10248 10243 10238 10232 10227 10223 10218 10214 10210 10205 10201 10197 10192 10189 10185 10182 10178 10174 10171 10166 10162 10158 10154 10149 10145 10140 10135 10130 10126 10121 10116 10110 10104 10099 10093 10087 10082 10076 10070 10064 10057 10050 10045 10040 10035 10029 10024 10019 10013 10007 10001 9995 9990
10336 10334 10332 10329 10326 10324 10321 10319 10316 10313 10311 10308 10305 10302 10299 10296 10293 10290 10287 10284 10280 10277 10273 10270 10266 10263 10259 10256 10252 10248 10244 10239 10234 10228 10223 10218 10213 10207 10203 10198 10194 10190 10186 10181 10177 10174 10170 10167 10163 10159 10155 10151 10146 10142 10138 10134 10129 10124 10119 10114 10110 10105 10099 10093 10087 10081 10075 10070 10065 10059 10053 10047 10040 10033 10027 10022 10017 10012 10007 10001 9995 9989 9983 9977 9972
10323 10321 10319 10317 10314 10312 10309 10306 10303 10301 10298 10295 10292 10289 10286 10283 10280 10277 10274 10271 10267 10263 10259 10256 10252 10249 10245 10242 10238 10234 10230 10225 10220 10215 10209 10204 10199 10194 10189 10184 10179 10175 10171 10166 10163 10159 10156 10153 10149 10144 10140 10136 10131 10126 10122 10118 10113 10108 10103 10098 10093 10088 10082 10076 10070 10063 10057 10052 10048 10043 10036 10029 10022 10016 10010 10005 9999 9994 9989 9983 9977 9972 9966 9960 9955
10310 10308 10306 10303 10301 10298 10295 10292 10290 10287 10284 10281 10278 10275 10273 10270 10267 10264 10261 10257 10253 10249 10246 10242 10238 10234 10231 10227 10224 10220 10215 10210 10205 10200 10195 10189 10184 10179 10174 10169 10165 10160 10156 10151 10148 10145 10142 10139 10135 10131 10126 10121 10116 10111 10107 10102 10097 10092 10087 10082 10076 10071 10065 10059 10052 10046 10040 10035 10031 10025 10019 10012 10005 9999 9992 9987 9981 9976 9971 9965 9959 9953 9947 9942 9936
10297 10295 10292 10289 10287 10284 10281 10279 10276 10273 10270 10268 10265 10262 10259 10257 10253 10250 10247 10243 10239 10235 10231 10227 10223 10220 10216 10212 10208 10204 10199 10194 10189 10184 10179 10173 10168 10163 10158 10153 10149 10145 10140 10136 10132 10129 10126 10124 10121 10117 10112 10106 10101 10096 10091 10086 10081 10076 10070 10065 10060 10054 10048 10041 10035 10028 10023 10018 10013 10007 10001 9994 9988 9981 9974 9968 9962 9957 9952 9946 9940 9934 9928 9923 9917
10283 10280 10277 10275 10272 10269 10267 10264 10261 10259 10256 10254 10251 10248 10245 10242 10239 10235 10232 10228 10224 10220 10216 10213 10209 10204 10200 10196 10191 10187 10182 10177 10172 10167 10162 10157 10152 10147 10142 10138 10134 10129 10125 10121 10117 10113 10110 10107 10104 10101 10097 10092 10085 10080 10074 10069 10064 10058 10053 10047 10042 10036 10030 10023 10017 10011 10005 9999 9993 9987 9982 9976 9970 9963 9956 9949 9943 9938 9932 9926 9920 9914 9908 9903 9898
10267 10265 10262 10260 10257 10255 10252 10250 10247 10245 10242 10239 10236 10233 10230 10226 10223 10220 10216 10213 10209 10205 10201 10197 10193 10189 10184 10180 10175 10170 10166 10161 10156 10151 10146 10141 10137 10132 10127 10123 10118 10114 10110 10106 10101 10097 10094 10090 10087 10084 10080 10075 10069 10063 10057 10051 10045 10039 10034 10028 10022 10017 10011 10004 9998 9992 9986 9979 9973 9967 9961 9956 9950 9944 9937 9930 9923 9917 9911 9905 9900 9894 9889 9883 9878
10252 10250 10247 10244 10242 10240 10238 10235 10233 10230 10227 10224 10221 10217 10214 10211 10207 10204 10200 10196 10193 10189 10185 10181 10177 10173 10169 10164 10159 10155 10150 10145 10140 10135 10130 10125 10120 10115 10111 10107 10103 10098 10094 10090 10085 10081 10077 10073 10069 10065 10061 10057 10052 10046 10040 10033 10027 10021 10015 10009 10003 9997 9991 9984 9978 9972 9966 9959 9953 9946 9940 9935 9929 9922 9915 9908 9902 9896 9890 9885 9879 9874 9869 9864 9860
10236 10234 10231 10230 10227 10225 10223 10220 10217 10214 10211 10208 10205 10201 10198 10194 10191 10187 10184 10180 10176 10173 10170 10166 10161 10157 10153 10148 10143 10139 10134 10128 10123 10118 10113 10108 10103 10098 10094 10090 10086 10081 10077 10073 10068 10064 10059 10055 10051 10047 10042 10038 10033 10028 10022 10016 10009 10002 9996 9989 9983 9977 9970 9964 9957 9951 9944 9938 9932 9925 9918 9912 9906 9900 9893 9886 9880 9874 9869 9864 9859 9854 9850 9845 9842
10220 10218 10216 10214 10212 10209 10207 10204 10201 10198 10195 10192 10188 10185 10181 10178 10174 10171 10168 10164 10160 10156 10153 10148 10144 10140 10135 10131 10126 10121 10116 10111 10106 10101 10096 10091 10086 10081 10077 10073 10068 10064 10060 10056 10051 10046 10041 10036 10032 10027 10022 10017 10012 10006 10000 9994 9988 9982 9976 9969 9962 9955 9949 9942 9935 9928 9922 9916 9909 9903 9896 9889 9883 9877 9871 9864 9858 9853 9848 9844 9840 9836 9831 9827 9824
10205 10203 10201 10198 10196 10194 10191 10188 10185 10182 10179 10175 10172 10168 10165 10161 10158 10154 10150 10147 10143 10139 10135 10131 10127 10122 10118 10114 10109 10104 10099 10094 10089 10083 10078 10073 10068 10064 10060 10055 10050 10046 10042 10037 10032 10027 10022 10016 10012 10007 10001 9996 9991 9985 9979 9973 9967 9961 9955 9948 9940 9933 9926 9919 9912 9905 9898 9892 9886 9880 9873 9867 9861 9855 9850 9844 9838 9833 9829 9825 9822 9818 9814 9810 9806
10189 10187 10185 10182 10180 10177 10174 10171 10168 10165 10162 10158 10155 10152 10148 10144 10141 10137 10133 10129 10125 10121 10117 10113 10109 10105 10101 10096 10092 10087 10082 10076 10071 10065 10060 10055 10050 10046 10041 10037 10032 10028 10023 10018 10013 10007 10002 9997 9992 9986 9981 9976 9970 9964 9959 9953 9946 9939 9932 9925 9917 9909 9902 9895 9889 9881 9874 9868 9862 9857 9851 9845 9839 9834 9829 9824 9819 9815 9811 9807 9804 9800 9796 9793 9789